[Iaude] MPEC F102: 2024 FA3 [a=0.88,e=0.24,i=6.6,H=26.1]
    mpec at cfa.harvard.edu 
    mpec at cfa.harvard.edu
       
    Fri Mar 29 19:10:25 EDT 2024
    
    
  
M.P.E.C. 2024-F102                               Issued 2024 March 29, 23:09 UT
     The Minor Planet Electronic Circulars contain information on unusual
         minor planets, routine data on comets and natural satellites,
         and occasional editorial announcements.  They are published
    on behalf of Division F of the International Astronomical Union by the
          Minor Planet Center, Smithsonian Astrophysical Observatory,
                          Cambridge, MA 02138, U.S.A.
			  
             Prepared using the Tamkin Foundation Computer Network
                              MPC at CFA.HARVARD.EDU
            URL https://www.minorplanetcenter.net/    ISSN 1523-6714
                                    2024 FA3                                    
Observations:
     K24F03A*1C2024 03 28.28031912 06 42.690+54 08 10.10               VEF102G96
     K24F03A 1C2024 03 28.28560312 06 31.010+54 05 54.90               VEF102G96
     K24F03A 1C2024 03 28.29087312 06 19.730+54 03 41.00         19.81GVEF102G96
     K24F03A 1C2024 03 28.29613812 06 08.440+54 01 27.80         21.49GVEF102G96
     K24F03A KC2024 03 28.34826712 04 16.316+53 38 49.92         19.92GVEF102I52
     K24F03A KC2024 03 28.34990812 04 12.886+53 38 06.50         19.59GVEF102I52
     K24F03A KC2024 03 28.35154912 04 09.412+53 37 23.41         19.86GVEF102I52
     K24F03A KC2024 03 28.35319712 04 05.941+53 36 40.10         20.03GVEF102I52
     K24F03A KC2024 03 28.48522911 59 42.374+52 37 46.60         19.75GVEF102I52
     K24F03A KC2024 03 28.48594611 59 41.042+52 37 27.44         19.69GVEF102I52
     K24F03A KC2024 03 28.48666411 59 39.710+52 37 08.22         20.47GVEF102I52
     K24F03A KC2024 03 28.48738111 59 38.357+52 36 48.64         19.77GVEF102I52
     K24F03A KB2024 03 28.89551 11 48 52.50 +49 44 32.9          19.4 GXEF102M45
     K24F03A KB2024 03 28.90007 11 48 44.83 +49 42 37.5          19.6 GXEF102M45
     K24F03A KB2024 03 28.90436611 48 43.838+49 40 19.45         19.6 GXEF102K74
     K24F03A KB2024 03 28.91506011 48 26.035+49 35 51.94         19.5 GXEF102K74
     K24F03A KB2024 03 28.92575511 48 08.278+49 31 23.34         19.2 GXEF102K74
     K24F03A KC2024 03 28.99145211 46 25.399+49 03 37.19         19.8 GVEF102J95
     K24F03A KC2024 03 28.99504811 46 19.598+49 02 05.64         19.8 GVEF102J95
     K24F03A KC2024 03 29.07430511 44 48.02 +48 28 55.9          19.9 GVEF102H21
     K24F03A KC2024 03 29.07623411 44 45.03 +48 28 09.7          20.0 GVEF102H21
     K24F03A KC2024 03 29.07818011 44 42.04 +48 27 22.8          20.4 GVEF102H21
     K24F03A KC2024 03 29.08034711 44 38.71 +48 26 30.8                VEF102H21
     K24F03A KC2024 03 29.26792 11 39 55.663+47 09 49.21         19.66GVEF102H36
     K24F03A KC2024 03 29.27878 11 39 39.415+47 05 16.84         19.94GVEF102H36
     K24F03A KC2024 03 29.28971 11 39 23.429+47 00 43.92         19.71GVEF102H36
     K24F03A KB2024 03 29.53015 11 34 38.70 +45 23 09.2          19.6 GXEF102Q06
     K24F03A KB2024 03 29.53454 11 34 32.74 +45 21 23.9          20.2 GXEF102Q06
     K24F03A KB2024 03 29.53887 11 34 26.78 +45 19 40.7          19.7 GXEF102Q06
     K24F03A KC2024 03 29.83749 11 28 43.49 +43 20 11.0          20.0 GXEF102L51
     K24F03A KC2024 03 29.83881 11 28 41.81 +43 19 40.6          19.7 GXEF102L51
     K24F03A KC2024 03 29.84013 11 28 40.26 +43 19 09.3          19.5 GXEF102L51
Observer details:
G96 Mt. Lemmon Survey.  Observer V. F. Carvajal.  Measurers T. Beuden, V. F.
    Carvajal, D. Fay, J. B. Fazekas, D. C. Fuls, A. R. Gibbs, A. D. Grauer, H.
    Groeller, J. K. Hogan, R. A. Kowalski, S. M. Larson, G. J. Leonard, D.
    Rankin, R. L. Seaman, F. C. Shelly, K. W. Wierzchos.  1.5-m reflector +
    10K CCD.
H21 Astronomical Research Observatory, Westfield.  Observer R. Holmes.
    Measurers T. Linder, R. Holmes, L. Horn.  0.76-m f/3.0 astrograph + CCD.
H36 Sandlot Observatory, Scranton.  Observer G. Hug.  0.56-m f/4.8 .56 meter
    Reflector + CCD.
I52 Steward Observatory, Mt. Lemmon Station.  Observer T. Beuden.  Measurers
    T. Beuden, V. F. Carvajal, D. Fay, J. B. Fazekas, D. C. Fuls, A. R. Gibbs,
    A. D. Grauer, H. Groeller, J. K. Hogan, R. A. Kowalski, S. M. Larson, G.
    J. Leonard, D. Rankin, R. L. Seaman, F. C. Shelly, K. W. Wierzchos.  1.0-m
    prime focus + CCD.
J95 Great Shefford.  Observer P. Birtwhistle.  0.41-m f/6.3 Schmidt-Cassegrain
    + CCD.
K74 Muensterschwarzach Observatory, Schwarzach.  Observer C. Gerhard.  0.30-m
    f/3.75 reflector + CMO.
L51 MARGO, Nauchnyi.  Observer G. Borisov.  0.50-m f/1.9 reflector + CCD.
M45 Starhopper Observatory, Sfantu Gheorghe.  Observer F. Ursache.  0.41-m
    f/7.5 reflector + CMO.
Q06 Tarui Observatory, Tarui.  Observer H. Watanabe.  0.35-m f/1.9 Schmidt-
    Cassegrain + CMO.
Orbital elements:
2024 FA3                                                 Earth MOID = 0.0229 AU
Epoch 2024 Mar. 31.0 TT = JDT 2460400.5                 Veres                   
M 119.75494              (2000.0)            P               Q                  
n   1.18587989     Peri.   33.23714     +0.64967627     -0.75952290             
a   0.8839796      Node    16.32273     +0.66998980     +0.55195522             
e   0.2380651      Incl.    6.60713     +0.35921360     +0.34419530             
P   0.83           H   26.15          G   0.15           U   6                  
Residuals in seconds of arc
240328 G96  0.5+  0.3-    240328 I52  0.4-  0.2-    240329 H21  0.2-  0.2+
240328 G96  0.7-  0.3-    240328 M45  0.5-  0.3+    240329 H36  0.8+  0.4-
240328 G96  1.1+  1.0+    240328 M45  0.3-  0.1+    240329 H36  0.7-  0.8-
240328 G96 (2.6+  3.2+)   240328 K74  0.1+  0.1+    240329 H36  0.3+  0.3+
240328 I52  0.0   0.1+    240328 K74  0.2+  0.4+    240329 Q06  0.6+  1.3+
240328 I52  0.3+  0.2-    240328 K74  0.2+  0.3+    240329 Q06  0.8+  0.4+
240328 I52  0.2+  0.2-    240328 J95  0.0   0.3+    240329 Q06  0.0   0.4+
240328 I52  0.3+  0.2-    240328 J95  0.1-  0.3-    240329 L51  0.3+  0.5-
240328 I52  0.4-  0.6-    240329 H21  0.0   0.2-    240329 L51  0.6-  0.1-
240328 I52  0.3-  0.3-    240329 H21  0.3-  0.1+    240329 L51  0.0   0.6-
240328 I52  0.2-  0.1-    240329 H21  0.2-  0.0
Ephemeris:
2024 FA3                 a,e,i = 0.88, 0.24, 7                   q = 0.6735
Date    TT    R. A. (2000) Decl.     Delta      r    Elong.  Phase     V
2024 02 28    21 40 50.1 +23 58 38   0.1093  0.9036    35.5   140.5    28.0
...
2024 03 14    21 07 37.9 +38 44 11   0.05342 0.9635    53.6   123.8    24.9
...
2024 03 22    19 27 16.8 +62 07 02   0.02959 0.9917    80.1    98.2    22.0
...
2024 03 28    12 16 26.8 +56 06 09   0.02446 1.0109   120.9    57.9    20.2
2024 03 29    11 46 16.1 +49 00 37   0.02557 1.0139   126.7    52.1    20.1
2024 03 30    11 25 50.4 +42 17 39   0.02718 1.0168   131.4    47.5    20.1
...
2024 04 05    10 36 50.5 +16 12 10   0.04340 1.0335   138.9    39.5    21.0
...
2024 04 13    10 21 39.5 +02 48 26   0.07195 1.0527   132.6    44.5    22.3
...
2024 04 28    10 22 16.6 -06 08 32   0.1306  1.0791   120.6    53.4    23.9
M. P. C. Staff               (C) Copyright 2024 MPC           M.P.E.C. 2024-F102
    
    
More information about the Iaude
mailing list